Probability
0 0 0 0 0 0 0 0 0 0 0 0 0 0 0 0 0 0 0 0 0 0 0 0 0 0 0 0 0 0 0 0 0 0 0 0 0 0 0 0 0 0 0
0 0 0 0 0 0 0 0 0 0 0 0 0 0 0 0 0 0 0 0 0 0 0 0 0 0 0 0 0 0 0 0 0 0 0 0 0 0 0 0 0 0 0
0 0 0 0 0 0 0 0 0 0 0 0 0 0 0 0 0 0 0 0 0 0 0 0 0 0 0 0 0 0 0 0 0 0 0 0 0 0 0 0 0 0 0
0 0 0 0 0 0 0 0 0 0 0 0 0 0 0 0 0 0 0 0 0 0 0 0 0 0 0 0 0 0 0 0 0 0 0 0 0 0 0 0 0 0 0
0 0 0 0 0 0 0 0 0 0 0 0 0 0 0 0 0 0 0 0 0 0 0 0 0 0 0 0 0 0 0 0 0 0 0 0 0 0 0 0 0 0 0
0 0 0 0 0 0 0 0 0 0 0 0 0 0 0 0 0 0 0 0 0 0 0 0 0 0 0 0 0 0 0 0 0 0 0 0 0 0 0 0 0 0 0
0 0 0 0 0 0 0 0 0 0 0 0 0 0 0 0 0 0 0 0 0 0 0 0 0 0 0 0 0 0 0 0 0 0 0 0 0 0 0 0 0 0 0
0 0 0 0 0 0 0 0 0 0 0 0 0 0 0 0 0 0 0 0 0 0 0 0 0 0 0 0 0 0 0 0 0 0 0 0 0 0 0 0 0 0 0
0 0 0 0 0 0 0 0 0 0 0 0 0 0 0 0 0 0 0 0 0 0 0 0 0 0 0 0 0 0 0 0 0 0 0 0 0 0 0 0 0 0 0
0 0 0 0 0 0 0 0 0 0 0 0 0 0 0 0 0 0 0 0 0 0 0 0 0 0 0 0 0 0 0 0 0 0 0 0 0 0 0 0 0 0 0
0 0 0 0 0 0 0 0 0 0 0 0 0 0 0 0 0 0 0 0 0 0 0 0 0 0 0 0 0 0 0 0 0 0 0 0 0 0 0 0 0 0 0
0 0 0 0 0 0 0 0 0 0 0 0 0 0 0 0 0 0 0 0 0 0 0 0 0 0 0 0 0 0 0 0 0 0 0 0 0 0 0 0 0 0 0
0 0 0 0 0 0 0 0 0 0 0 0 0 0 0 0 0 0 0 0 0 0 0 0 0 0 0 0 0 0 0 0 0 0 0 0 0 0 0 0 0 0 0
0 0 0 0 0 0 0 0 0 0 0 0 0 0 0 0 0 0 0 0 0 0 0 0 0 0 0 0 0 0 0 0 0 0 0 0 0 0 0 0 0 0 0
0 0 0 0 0 0 0 0 0 0 0 0 0 0 0 0 0 0 0 0 0 0 0 0 0 0 0 0 0 0 0 0 0 0 0 0 0 0 0 0 0 0 0
0 0 0 0 0 0 0 0 0 0 0 0 0 0 0 0 0 0 0 0 0 0 0 0 0 0 0 0 0 0 0 0 0 0 0 0 0 0 0 0 0 0 0
0 0 0 0 0 0 0 0 0 0 0 0 0 0 0 0 0 0 0 0 0 0 0 0 0 0 0 0 0 0 0 0 0 0 0 0 0 0 0 0 0 0 0
0 0 0 0 0 0 0 0 0 0 0 0 0 0 0 0 0 0 0 0 0 0 0 0 0 0 0 0 0 0 0 0 0 0 0 0 0 0 0 0 0 0 0
0 0 0 0 0 0 0 0 0 0 0 0 0 0 0 0 0 0 0 0 0 0 0 0 0 0 0 0 0 0 0 0 0 0 0 0 0 0 0 0 0 0 0
0 0 0 0 0 0 0 0 0 0 0 0 0 0 0 0 0 0 0 0 0 0 0 0 0 0 0 0 0 0 0 0 0 0 0 0 0 0 0 0 0 0 0
0 0 0 0 0 0 0 0 0 0 0 0 0 0 0 0 0 0 0 0 0 0 0 0 0 0 0 0 0 0 0 0 0 0 0 0 0 0 0 0 0 0 0
0 0 0 0 0 0 0 0 0 0 0 0 0 0 0 0 0 0 0 0 0 0 0 0 0 0 0 0 0 0 0 0 0 0 0 0 0 0 0 0 0 0 0
0 0 0 0 0 0 0 0 0 0 0 0 0 0 0 0 0 0 0 0 0 0 0 0 0 0 0 0 0 0 0 0 0 0 0 0 0 0 0 0 0 0 0
0 0 0 0 0 0 0 0 0 0 0 0 0 0 0 0 0 0 0 0 0 0 0 0 0 0 0 0 0 0 0 0 0 0 0 0 0 0 0 0 0 0 0
0 0 0 0 0 0 0 0 0 0 0 0 0 0 0 0 0 0 0 0 0 0 0 0 0 0 0 0 0 0 0 0 0 0 0 0 0 0 0 0 0 0 0
0 0 0 0 0 0 0 0 0 0 0 0 0 0 0 0 0 0 0 0 0 0 0 0 0 0 0 0 0 0 0 0 0 0 0 0 0 0 0 0 0 0 0
Wind_Speed
8 8 7 7 6 5 5 5 4 4 5 5 6 6 6 7 7 7 8 9 10 11 11 12 13 12 11 9 10 11 11 12 18 19 11 8 10 12 11 12 13 13 13
7 7 7 7 6 6 6 6 5 5 5 5 6 6 6 7 7 8 9 10 11 12 12 13 14 11 13 11 10 12 12 12 14 21 15 9 10 11 11 11 11 11 12
7 7 7 7 7 7 6 6 6 6 6 5 6 6 7 8 8 8 9 10 11 12 12 13 13 12 13 11 12 12 11 10 12 15 17 11 8 6 8 9 11 11 11
7 7 8 7 7 7 6 6 6 6 6 6 6 7 7 8 8 8 9 10 11 12 12 13 13 13 13 13 11 12 11 12 11 13 15 12 8 4 5 8 9 10 11
7 8 7 7 7 6 7 7 7 6 7 7 7 7 7 7 7 9 10 10 11 12 12 12 13 13 14 13 11 12 11 11 11 12 14 13 10 5 7 6 10 9 9
7 7 6 7 7 7 7 7 7 7 7 7 7 8 8 7 10 14 12 11 11 12 12 12 12 11 13 16 19 19 18 15 13 13 13 14 14 10 8 7 8 8 8
5 5 6 7 7 8 8 8 8 8 9 9 8 9 9 11 14 15 14 11 12 11 12 11 10 9 11 12 14 17 17 19 21 17 17 17 15 10 8 10 9 9 9
4 5 6 7 7 8 8 8 9 8 8 9 9 10 10 11 14 16 15 11 11 11 11 12 12 13 11 12 13 13 13 13 14 12 13 14 12 10 8 9 9 8 4
5 6 7 7 8 9 9 9 9 9 9 9 9 10 10 12 14 16 15 9 9 11 11 11 11 12 14 17 14 13 14 12 13 15 17 17 18 17 12 7 6 5 5
6 7 7 7 8 9 9 10 9 9 10 10 10 9 10 11 14 16 15 8 9 10 9 9 10 13 16 17 12 11 13 12 9 9 10 11 11 11 11 8 6 6 4
6 7 7 7 8 9 9 8 9 9 10 10 11 10 9 9 12 15 15 8 8 10 9 9 8 14 16 17 14 10 13 13 9 9 8 7 5 4 4 4 4 4 4
7 7 8 8 8 7 9 9 9 9 10 10 10 10 7 7 8 12 15 14 13 10 9 9 9 16 17 16 12 12 14 11 7 7 6 5 5 4 3 3 2 2 2
7 8 8 8 8 7 8 9 9 8 8 8 8 9 9 7 8 12 13 15 15 9 8 12 14 15 14 10 10 12 9 6 6 6 6 5 4 4 3 2 2 3 5
7 8 8 8 9 7 7 7 7 7 7 8 8 9 9 8 7 7 7 8 8 8 7 7 10 11 9 8 7 7 5 5 5 5 5 4 4 3 2 2 1 1 2
7 7 7 7 8 8 8 7 9 8 9 10 9 8 9 9 9 14 12 8 7 7 7 5 5 5 6 6 6 5 5 5 5 5 4 4 3 3 2 2 1 1 1
6 6 6 6 7 7 8 9 11 12 15 16 13 11 8 11 15 15 13 11 10 8 4 3 4 5 6 6 6 6 6 6 6 5 5 4 4 3 3 2 2 2 1
6 7 6 6 7 7 7 8 9 9 10 9 9 9 9 11 12 12 10 8 8 6 3 3 4 4 5 5 6 6 6 7 6 6 5 5 4 4 3 3 2 2 2
7 7 7 7 7 7 7 8 8 8 8 6 6 8 10 10 10 11 10 5 5 5 4 3 4 4 5 5 5 5 6 6 6 6 6 5 5 4 3 3 3 3 2
6 5 6 6 7 7 8 8 8 8 7 6 5 5 7 8 9 11 9 4 3 4 4 4 4 4 4 5 5 5 5 5 6 5 5 6 5 5 4 4 3 3 2
5 7 8 7 7 7 7 7 7 6 5 4 4 4 4 4 3 5 5 4 3 3 3 3 3 4 4 4 5 5 5 5 6 5 5 5 5 5 4 4 3 3 2
5 6 7 7 6 6 6 6 6 5 4 3 3 3 4 2 2 3 3 3 3 3 3 3 3 4 4 4 4 5 5 5 5 5 5 5 5 5 4 4 3 3 2
5 5 5 5 5 5 5 5 4 4 3 2 2 3 4 2 2 2 2 2 2 2 3 3 3 3 3 4 4 4 4 4 4 5 5 5 4 4 4 4 4 3 2
5 5 5 5 5 5 5 4 3 2 2 2 2 2 2 1 1 1 2 2 2 2 2 3 3 3 3 3 3 3 4 4 4 4 5 4 4 4 4 4 4 3 3
4 4 4 4 4 3 3 3 2 2 2 2 2 2 2 2 2 2 3 3 3 3 3 3 3 5 6 5 4 3 4 4 4 4 5 4 4 4 3 3 3 4 3
3 3 4 3 3 3 3 3 2 2 2 3 3 3 3 3 3 3 3 3 4 4 5 5 4 5 6 7 7 6 7 8 6 4 4 3 4 3 3 3 3 3 3
3 3 3 3 3 3 3 3 3 3 3 3 3 4 4 4 4 4 4 4 4 5 5 5 6 7 9 8 9 9 9 10 8 7 5 4 4 3 3 3 3 3 3
Wind_Direction
65 67 66 60 54 51 44 27 7 353 343 331 320 311 306 301 296 287 280 280 275 273 270 266 264 261 258 252 245 243 240 240 262 275 268 255 227 230 234 234 237 238 239
59 62 59 53 46 42 34 20 5 354 344 333 321 312 307 302 297 290 286 283 279 278 277 275 274 273 268 265 259 254 251 245 254 270 274 263 244 237 238 236 234 234 237
55 57 53 44 36 29 19 8 1 352 342 335 326 317 311 306 302 295 290 287 284 282 281 279 279 279 275 272 269 267 264 260 256 265 274 272 261 239 237 240 240 241 240
53 52 44 31 22 14 6 359 353 346 339 334 325 316 310 306 301 300 298 294 289 286 283 281 280 277 276 277 275 272 272 270 267 268 273 275 266 240 227 243 246 237 240
48 44 32 18 10 4 358 350 343 338 334 328 321 316 311 306 303 307 304 296 293 291 287 282 280 278 275 275 275 277 276 274 272 271 273 277 270 245 241 236 249 250 241
43 34 16 6 359 355 348 340 336 334 331 326 320 315 312 307 308 306 303 297 293 290 290 289 286 280 279 275 272 271 270 272 274 273 274 272 274 268 260 248 252 254 254
38 23 9 358 350 345 338 335 333 330 326 322 318 315 309 307 310 309 307 299 293 290 291 293 292 288 284 286 284 280 275 270 268 270 274 275 279 279 272 262 251 250 255
28 13 0 349 341 335 332 329 327 322 319 314 312 310 307 305 311 311 311 300 294 292 293 293 294 296 295 294 291 286 282 277 273 269 270 277 280 281 269 267 265 258 256
16 360 350 341 333 329 326 323 320 316 312 309 305 305 303 304 309 311 312 303 296 296 295 292 291 293 295 297 294 289 289 286 285 277 275 279 283 283 280 275 259 250 256
357 343 335 332 325 319 316 314 312 308 303 304 300 298 297 297 303 309 311 301 300 301 300 295 288 292 298 300 295 292 293 296 297 294 288 287 286 283 278 267 260 251 253
340 331 328 326 319 310 309 307 306 303 302 300 299 297 293 291 299 306 309 304 300 303 303 304 303 305 305 305 302 294 294 301 299 295 293 292 291 289 289 284 271 256 247
335 327 322 318 313 309 307 304 302 300 300 300 302 302 298 296 298 305 309 307 304 299 299 302 304 309 310 310 308 306 308 307 301 300 301 303 307 311 319 327 337 352 6
328 318 313 311 305 303 302 303 303 298 295 299 300 301 305 307 306 308 307 306 304 299 293 298 306 311 313 313 317 319 315 309 307 306 309 314 319 323 330 350 27 54 56
317 313 310 309 308 306 299 294 293 293 293 294 296 299 302 304 308 313 310 306 303 301 300 303 310 318 322 324 323 327 327 325 321 319 321 324 330 338 346 354 6 40 57
308 303 305 303 304 305 297 287 287 278 276 286 289 292 299 303 312 317 316 312 312 308 311 313 324 331 336 339 339 339 339 339 337 334 331 331 337 344 356 7 6 11 36
307 307 306 305 303 300 301 298 286 284 291 286 285 292 293 298 313 317 321 327 330 329 329 335 341 343 342 342 341 342 347 347 343 340 342 343 344 349 356 3 3 5 23
292 296 297 296 296 296 297 299 303 303 299 306 316 321 324 327 332 333 334 344 360 5 8 357 350 347 344 345 345 345 346 348 346 349 353 353 351 352 355 359 1 4 17
284 283 281 284 287 288 288 288 290 295 300 299 324 336 344 347 354 357 354 359 14 23 18 5 355 350 348 347 347 348 348 351 356 358 359 359 356 353 356 356 354 355 356
284 282 282 284 283 282 283 284 283 283 284 293 306 324 352 356 8 16 19 26 26 20 15 11 4 357 353 349 348 349 352 355 358 358 1 1 357 355 358 355 353 5 356
274 278 283 285 285 284 283 284 284 284 286 291 303 318 337 346 1 7 16 18 23 18 9 5 360 357 351 349 349 351 355 0 0 1 358 358 355 355 355 351 351 347 343
284 285 283 282 281 283 285 286 287 285 283 290 311 330 355 6 11 10 9 11 9 3 355 351 349 348 348 344 346 352 357 358 357 353 352 353 351 350 349 347 348 349 349
278 282 285 285 287 287 289 289 287 284 282 285 315 342 9 19 11 6 0 356 350 343 337 331 329 335 335 334 334 338 343 346 346 343 341 342 341 345 344 347 348 344 344
279 284 285 284 285 288 287 287 288 287 289 295 305 318 333 339 336 330 325 321 319 318 318 314 312 314 318 313 315 316 318 323 324 323 323 327 332 335 335 337 338 333 330
281 283 285 287 288 288 290 292 291 291 291 290 290 292 294 297 295 295 295 295 295 293 292 290 288 293 301 303 299 295 291 296 302 298 300 305 313 317 319 321 320 322 316
278 280 282 284 286 287 286 284 282 281 279 276 276 276 278 278 276 277 278 279 283 281 283 282 279 282 286 288 287 286 290 292 288 282 280 279 285 291 295 299 300 302 299
276 278 278 279 278 278 277 276 275 275 273 272 270 271 272 272 272 272 272 271 275 277 277 275 272 276 282 282 281 282 281 279 270 259 254 256 259 263 265 269 276 278 280